User: anonymous   Login
Location: Unspecified
(0.0000°N, 0.0000°E)
Time: 20:09:37
(UTC+00:00)
Language:

STSS DEMO 2 (USA 209) - Orbit

View from above orbital plane
View from above orbital plane
View from above satellite
View from above satellite

Ground track
Ground track

The orbit data is extracted from the following two-line orbital elements,

1 35938U 09052B   16205.92035885 0.00000000  00000-0  00000-0 0    01
2 35938  57.9916 191.4851 0012152 338.3097  21.6903 12.79300915    08
Epoch (UTC): 23 July 2016 22:05:19
Eccentricity: 0.0012152
inclination: 57.9916°
perigee height: 1335 km
apogee height: 1353 km
right ascension of ascending node: 191.4851°
argument of perigee: 338.3097°
revolutions per day: 12.79300915
mean anomaly at epoch: 21.6903°
orbit number at epoch: 0

The dashed part of the orbit path shows where the satellite is in the earth's shadow,  

DLR